Home   Weather   Newport Beach   Past weeks
Flag for USA

Past Weather in Newport Beach, California, USA — Yesterday and Last 2 Weeks

Now
70 °F

Sunny.


Feels Like: 74 °F
Forecast: 74 / 57 °F
Wind: No wind

Location: John Wayne Airport-Orange County Airport

Current Time: Feb 26, 2020 at 9:19:54 am

Latest Report: Feb 26, 2020 at 8:53 am


Visibility: 10 mi

Pressure: 30.30 "Hg

Humidity: 18%

Dew Point: 25 °F

Location of Newport BeachLocation

Past Weather in Newport Beach — Graph

°F

Newport Beach Temperature Yesterday

Maximum temperature yesterday: 84 °F (at 2:08 pm)
Minimum temperature yesterday: 53 °F (at 5:53 am)
Average temperature yesterday: 65 °F

High & Low Weather Summary for the Past Weeks

 TemperatureHumidityPressure
High84 °F (Feb 25, 2:08 pm)90% (Feb 25, 7:15 am)30.30 "Hg (Feb 25, 7:15 am)
Low48 °F (Feb 15, 6:23 am)7% (Feb 11, 12:53 pm)29.88 "Hg (Feb 17, 3:53 pm)
Average61 °F63%30.08 "Hg
* Reported Feb 11 6:53 am — Feb 26 6:53 am, Newport Beach. Weather by CustomWeather, © 2020

Note: Actual official high and low records may vary slightly from our data, if they occured in-between our weather recording intervals... More about our weather records

Newport Beach Weather History for the Previous 24 Hours

Scroll right to see more
 ConditionsComfort  
Time TempWeatherWind HumidityBarometerVisibility
6:53 am
Wed, Feb 26
56 °FSunny.No wind37%30.28 "Hg10 mi
5:53 am55 °FPassing clouds.No wind40%30.26 "Hg10 mi
4:53 am54 °FClear.No wind43%30.26 "Hg10 mi
3:53 am55 °FClear.No wind47%30.25 "Hg10 mi
2:53 am56 °FClear.No wind49%30.24 "Hg10 mi
1:53 am57 °FClear.6 mph49%30.24 "Hg10 mi
12:53 am59 °FClear.3 mph38%30.24 "Hg10 mi
11:53 pm
Tue, Feb 25
61 °FClear.No wind38%30.24 "Hg10 mi
10:53 pm64 °FClear.No wind29%30.24 "Hg10 mi
9:53 pm66 °FClear.7 mph31%30.24 "Hg10 mi
8:53 pm75 °FClear.5 mph8%30.21 "Hg10 mi
7:53 pm74 °FClear.7 mph13%30.19 "Hg10 mi
6:53 pm73 °FClear.No wind24%30.17 "Hg10 mi
5:53 pm76 °FClear.No wind23%30.15 "Hg10 mi
4:57 pm78 °FSunny.6 mph23%30.13 "Hg10 mi
3:53 pm81 °FSunny.8 mph23%30.12 "Hg10 mi
2:53 pm81 °FSunny.10 mph26%30.12 "Hg10 mi
2:08 pm84 °FSunny.13 mph16%30.13 "Hg10 mi
12:53 pm80 °FSunny.6 mph35%30.16 "Hg10 mi
11:53 am75 °FSunny.12 mph50%30.17 "Hg10 mi
10:53 am72 °FSunny.5 mph53%30.19 "Hg10 mi
9:53 am68 °FPassing clouds.8 mph65%30.18 "Hg8 mi
Weather by CustomWeather, © 2020

See weather overview

Advertising